Weather in Nagovo

Russia / Novgorod Oblast     58°02′31″N   31°10′43″E
temp.,
°C
wind,
m/s
gust,
m/s
humid.,
%
clouds,
%
prec.,
mm/h
press.,
hPa
HPBL,
m
4 march, thu
thu400:00+2w71488100 0.1 1004912
03:00+2wnw71392100 0.1 1004856
06:00−1nw3988100 0.1 1002503
09:00−2nnw3884100 0.1 1002475
12:000nnw36711 0.0 1002710
15:000nw46640 0.0 10031224
18:00−1nw387440 0.3 1003361
21:00−3nnw598068 0.5 1005781
5 march, fri
fri500:00−4nw388075 0.0 1006551
03:00−5wnw378638 0.0 1007361
06:00−5wnw268942 0.0 1007256
09:00−5nw358655 0.0 1009457
12:00−4nnw3474100 0.0 1010703
15:00−3nnw4570100 0.0 1012899
18:00−4nnw367694 0.1 1013646
21:00−5nnw378397 0.1 1016552
6 march, sat
sat600:00−6nnw268656 0.0 1017310
03:00−7nw369063 0.0 1018358
06:00−7nw259393 0.1 1019241
09:00−7wnw368686 0.1 1019344
12:00−4w356825 0.0 1018790
15:00−2wsw585818 0.0 10151120
18:00−2sw61258100 0.0 10111207
21:00−2sw81779100 0.3 10071347
7 march, sun
sun700:00−1wsw81776100 0.0 10011242
03:00−2sw81592100 0.8 9971098
06:00−3nnw101492100 2.2 994907
09:00−5wnw61262100 2.6 9951772
12:00−4w8135216 0.0 9962146
15:00−3wsw9167058 0.1 9931760
18:00−3w81484100 1.2 9911277
21:00−7wnw61273100 2.4 9921146
8 march, mon
mon800:00−7n8127887 0.4 9961188
03:00−9nw7128377 0.4 1000863
06:00−10nw6118595 0.0 1003733
09:00−11nw698398 0.1 1006861
12:00−10nnw6877100 0.1 1008937
15:00−9nnw6875100 0.1 10111037
18:00−10nnw6980100 0.1 1013959
21:00−11n5988100 0.3 1016909